User: anonymous   Login
Location: Unspecified
(0.0000°N, 0.0000°E)
Time: 22:39:08
(UTC+02:00)
Language:

Resurs 1-3 - Orbit

View from above orbital plane
View from above orbital plane
View from above satellite
View from above satellite

Ground track
Ground track

The orbit data is extracted from the following two-line orbital elements,

1 23342U 94074A   16127.06550184  .00000159  00000-0  28733-4 0  9996
2 23342  98.1231 156.1742 0001294  66.9768 293.1579 14.79162873157595
Epoch (UTC): 06 May 2016 01:34:19
Eccentricity: 0.0001294
inclination: 98.1231°
perigee height: 631 km
apogee height: 633 km
right ascension of ascending node: 156.1742°
argument of perigee: 66.9768°
revolutions per day: 14.79162873
mean anomaly at epoch: 293.1579°
orbit number at epoch: 15759

The dashed part of the orbit path shows where the satellite is in the earth's shadow,  

DLR